Weather History for Zanesville, OH

Change the Weather History Date:

Thursday, January 31, 2013

  Actual Average Record
Temperature  
Mean Temperature 29 °F 29 °F  
Max Temperature 36 °F 38 °F 70 °F (2002)
Min Temperature 21 °F 21 °F -8 °F (1955)
Degree Days  
Heating Degree Days 36 36  
Month to date heating degree days 1032 1116  
Since 1 July heating degree days 3138 3267  
Cooling Degree Days 0 0  
Month to date cooling degree days 0 0  
Year to date cooling degree days 0 0  
Moisture  
Dew Point 20 °F    
Average Humidity 79    
Maximum Humidity 96    
Minimum Humidity 62    
Precipitation  
Precipitation 0.01 in 0.08 in 0.89 in (1982)
Month to date precipitation 2.12 2.66  
Year to date precipitation 2.12 2.66  
Sea Level Pressure  
Sea Level Pressure 29.77 in    
Wind  
Wind Speed 15 mph (West)    
Max Wind Speed 28 mph    
Max Gust Speed 40 mph    
Visibility 4 miles    
Events Fog , Snow    
T = Trace of Precipitation, MM = Missing Value Source: NWS Daily Summary

Daily Weather History Graph

Daily Weather History Graph

Search for Another Location

Airport:

Trip Planner

Search our weather history database for the weather conditions in past years. The results will help you decide how hot, cold, wet, or windy it might be!

Date:

Astronomy

Jan. 31, 2013 Rise Set
Actual Time 7:36 AM EST 5:45 PM EST
Civil Twilight 7:08 AM EST 6:14 PM EST
Nautical Twilight 6:35 AM EST 6:47 PM EST
Astronomical Twilight 6:03 AM EST 7:18 PM EST
Moon 10:46 PM EST (1/31) 9:35 AM EST (1/31)
Length of Visible Light 11h 06m
Length of Day
10h 09m
Waning Gibbous, 80% of the Moon is Illuminated
Jan 31
Waning Gibbous
Feb 3
Last Quarter
Feb 10
New
Feb 17
First Quarter
Feb 25
Full

Hourly Weather History & Observations

Time (EST) Temp. Windchill Dew Point Humidity Pressure Visibility Wind Dir Wind Speed Gust Speed Precip Events Conditions
12:02 AM 35.6 °F 24.0 °F 32.0 °F 87% 29.40 in 10.0 mi West 23.0 mph 33.4 mph 0.00 in   Overcast
12:25 AM 35.6 °F 25.9 °F 30.2 °F 81% 29.42 in 10.0 mi West 16.1 mph 31.1 mph 0.00 in   Overcast
12:41 AM 35.6 °F 25.2 °F 30.2 °F 81% 29.43 in 10.0 mi West 18.4 mph 29.9 mph 0.00 in   Overcast
12:51 AM 35.6 °F 24.8 °F 28.4 °F 75% 29.43 in 10.0 mi West 19.6 mph 28.8 mph 0.00 in   Overcast
12:53 AM 35.1 °F 23.3 °F 28.0 °F 76% 29.44 in 10.0 mi West 23.0 mph 33.4 mph 0.00 in   Overcast
1:53 AM 34.0 °F 23.4 °F 27.0 °F 75% 29.49 in 10.0 mi West 17.3 mph 27.6 mph 0.00 in   Overcast
2:53 AM 33.1 °F 20.9 °F 24.1 °F 70% 29.53 in 9.0 mi West 21.9 mph 33.4 mph 0.00 in Snow Light Snow
3:30 AM 32.0 °F 21.2 °F 24.8 °F 75% 29.55 in 4.0 mi West 16.1 mph 23.0 mph 0.01 in Snow Light Snow
3:53 AM 32.0 °F 19.2 °F 21.9 °F 66% 29.57 in 10.0 mi West 23.0 mph 33.4 mph 0.01 in   Overcast
4:14 AM 30.2 °F 17.4 °F 21.2 °F 69% 29.56 in 10.0 mi West 20.7 mph 36.8 mph N/A   Overcast
4:22 AM 30.2 °F 17.1 °F 21.2 °F 69% 29.57 in 10.0 mi West 21.9 mph 32.2 mph N/A   Overcast
4:53 AM 30.0 °F 18.7 °F 21.0 °F 69% 29.60 in 10.0 mi West 16.1 mph 28.8 mph N/A   Overcast
5:11 AM 30.2 °F 18.5 °F 21.2 °F 69% 29.60 in 9.0 mi West 17.3 mph 35.7 mph 0.00 in Snow Light Snow
5:30 AM 28.4 °F 15.4 °F 23.0 °F 80% 29.61 in 1.8 mi West 19.6 mph 34.5 mph 0.00 in Snow Light Snow
5:39 AM 28.4 °F 14.7 °F 23.0 °F 80% 29.62 in 1.0 mi West 21.9 mph 32.2 mph 0.00 in Snow Light Snow
5:41 AM 28.4 °F 15.4 °F 23.0 °F 80% 29.62 in 0.8 mi West 19.6 mph 32.2 mph 0.00 in Snow Light Snow
5:48 AM 28.4 °F 16.2 °F 24.8 °F 86% 29.63 in 1.0 mi West 17.3 mph 26.5 mph 0.00 in Snow Light Snow
5:53 AM 28.0 °F 15.7 °F 23.0 °F 81% 29.64 in 2.5 mi West 17.3 mph 31.1 mph 0.00 in Snow Light Snow
6:15 AM 28.4 °F 14.1 °F 19.4 °F 69% 29.64 in 10.0 mi West 24.2 mph 34.5 mph 0.00 in   Overcast
6:53 AM 28.0 °F 15.3 °F 19.9 °F 72% 29.68 in 8.0 mi West 18.4 mph 28.8 mph 0.00 in Snow Light Snow
7:04 AM 26.6 °F 14.3 °F 19.4 °F 74% 29.68 in 1.8 mi West 16.1 mph 26.5 mph 0.00 in Snow Light Snow
7:12 AM 26.6 °F 12.7 °F 21.2 °F 80% 29.69 in 1.2 mi West 20.7 mph 33.4 mph 0.00 in Snow Light Snow
7:15 AM 26.6 °F 10.8 °F 19.4 °F 74% 29.69 in 1.8 mi West 27.6 mph 38.0 mph 0.00 in Snow Light Snow
7:18 AM 26.6 °F 10.8 °F 19.4 °F 74% 29.69 in 3.0 mi West 27.6 mph 38.0 mph 0.00 in Snow Light Snow
7:53 AM 26.1 °F 15.0 °F 15.1 °F 63% 29.73 in 10.0 mi West 12.7 mph 23.0 mph 0.00 in   Overcast
8:40 AM 24.8 °F 11.5 °F 17.6 °F 74% 29.74 in 2.5 mi West 17.3 mph 23.0 mph 0.00 in Snow Light Snow
8:44 AM 24.8 °F 12.4 °F 17.6 °F 74% 29.75 in 1.2 mi West 15.0 mph 23.0 mph 0.00 in Snow Light Snow
8:53 AM 25.0 °F 13.1 °F 19.0 °F 78% 29.77 in 1.5 mi West 13.8 mph - 0.00 in Snow Light Snow
8:57 AM 24.8 °F 13.4 °F 17.6 °F 74% 29.75 in 3.0 mi WSW 12.7 mph 19.6 mph 0.00 in Snow Light Snow
9:10 AM 24.8 °F 11.1 °F 15.8 °F 69% 29.75 in 7.0 mi West 18.4 mph 35.7 mph 0.00 in Snow Light Snow
9:21 AM 24.8 °F 10.3 °F 15.8 °F 69% 29.76 in 1.8 mi WSW 20.7 mph 26.5 mph 0.00 in Snow Light Snow
9:27 AM 24.8 °F 11.5 °F 17.6 °F 74% 29.76 in 1.2 mi West 17.3 mph 26.5 mph 0.00 in Snow Light Snow
9:31 AM 24.8 °F 11.9 °F 15.8 °F 69% 29.77 in 2.0 mi West 16.1 mph 26.5 mph 0.00 in Snow Light Snow
9:35 AM 24.8 °F 13.4 °F 15.8 °F 69% 29.77 in 5.0 mi West 12.7 mph 26.5 mph 0.00 in Snow Light Snow
9:45 AM 24.8 °F 13.4 °F 17.6 °F 74% 29.77 in 5.0 mi West 12.7 mph 24.2 mph 0.00 in Snow Light Snow
9:53 AM 25.0 °F 11.7 °F 17.1 °F 72% 29.78 in 9.0 mi West 17.3 mph 24.2 mph 0.00 in Snow Light Snow
10:12 AM 24.8 °F 10.7 °F 17.6 °F 74% 29.78 in 2.5 mi West 19.6 mph 27.6 mph 0.00 in Snow Light Snow
10:16 AM 24.8 °F 11.1 °F 17.6 °F 74% 29.78 in 1.2 mi West 18.4 mph 27.6 mph 0.00 in Snow Light Snow
10:24 AM 24.8 °F 10.0 °F 19.4 °F 80% 29.78 in 0.5 mi WSW 21.9 mph 28.8 mph 0.00 in Snow Snow
10:39 AM 24.8 °F 11.5 °F 19.4 °F 80% 29.80 in 1.2 mi West 17.3 mph 23.0 mph 0.00 in Snow Light Snow
10:42 AM 24.8 °F 10.0 °F 17.6 °F 74% 29.80 in 2.0 mi West 21.9 mph 33.4 mph 0.00 in Snow Light Snow
10:48 AM 24.8 °F 10.3 °F 15.8 °F 69% 29.80 in 8.0 mi West 20.7 mph 33.4 mph 0.00 in Snow Light Snow
10:53 AM 25.0 °F 11.3 °F 14.0 °F 63% 29.83 in 9.0 mi West 18.4 mph 33.4 mph 0.00 in   Overcast
11:53 AM 24.1 °F 11.0 °F 15.1 °F 69% 29.84 in 5.0 mi West 16.1 mph 27.6 mph 0.00 in Snow Light Snow
12:03 PM 24.8 °F 11.5 °F 17.6 °F 74% 29.82 in 2.5 mi West 17.3 mph 23.0 mph 0.00 in Snow Light Snow
12:05 PM 24.8 °F 11.5 °F 17.6 °F 74% 29.83 in 1.2 mi West 17.3 mph 23.0 mph 0.00 in Snow Light Snow
12:11 PM 23.0 °F 8.0 °F 17.6 °F 80% 29.83 in 0.2 mi West 20.7 mph 29.9 mph 0.00 in Snow Heavy Snow
12:14 PM 21.2 °F 7.8 °F 19.4 °F 93% 29.83 in 0.2 mi West 15.0 mph 29.9 mph 0.00 in Fog , Snow Heavy Snow
12:24 PM 24.8 °F 10.3 °F 15.8 °F 69% 29.83 in 2.5 mi West 20.7 mph 31.1 mph 0.00 in Snow Light Snow
12:28 PM 24.8 °F 11.5 °F 15.8 °F 69% 29.83 in 9.0 mi West 17.3 mph 31.1 mph 0.00 in   Overcast
12:53 PM 24.1 °F 10.1 °F 14.0 °F 65% 29.86 in 3.0 mi West 18.4 mph 31.1 mph 0.00 in Snow Light Snow
1:53 PM 25.0 °F 10.9 °F 12.9 °F 60% 29.87 in 8.0 mi West 19.6 mph 25.3 mph 0.00 in Snow Light Snow
2:03 PM 24.8 °F 11.5 °F 15.8 °F 69% 29.84 in 1.8 mi West 17.3 mph 26.5 mph 0.00 in Snow Light Snow
2:12 PM 24.8 °F 11.9 °F 15.8 °F 69% 29.84 in 3.0 mi West 16.1 mph 25.3 mph 0.00 in Snow Light Snow
2:53 PM 25.0 °F 13.6 °F 17.1 °F 72% 29.87 in 3.0 mi West 12.7 mph 23.0 mph 0.00 in Snow Light Snow
3:11 PM 26.6 °F 16.2 °F 17.6 °F 69% 29.84 in 5.0 mi WSW 11.5 mph 23.0 mph 0.00 in Snow Light Snow
3:20 PM 24.8 °F 15.3 °F 17.6 °F 74% 29.84 in 1.8 mi WSW 9.2 mph 19.6 mph 0.00 in Snow Light Snow
3:28 PM 26.6 °F 16.8 °F 17.6 °F 69% 29.84 in 3.0 mi WSW 10.4 mph 17.3 mph 0.00 in Snow Light Snow
3:43 PM 26.6 °F 13.8 °F 15.8 °F 64% 29.84 in 9.0 mi West 17.3 mph 24.2 mph 0.00 in   Overcast
3:53 PM 27.0 °F 15.6 °F 15.1 °F 61% 29.87 in 8.0 mi West 13.8 mph 25.3 mph 0.00 in Snow Light Snow
4:53 PM 27.0 °F 17.3 °F 15.1 °F 61% 29.87 in 10.0 mi WSW 10.4 mph 31.1 mph 0.00 in   Overcast
5:53 PM 27.0 °F 15.6 °F 15.1 °F 61% 29.88 in 10.0 mi WSW 13.8 mph 20.7 mph 0.00 in   Mostly Cloudy
6:53 PM 26.1 °F 16.8 °F 16.0 °F 66% 29.88 in 9.0 mi West 9.2 mph - 0.00 in   Overcast
7:45 PM 26.6 °F 18.2 °F 19.4 °F 74% 29.87 in 3.0 mi WNW 8.1 mph - 0.00 in Snow Light Snow
7:53 PM 25.0 °F 15.5 °F 19.9 °F 81% 29.91 in 3.0 mi WNW 9.2 mph - 0.00 in Snow Light Snow
7:57 PM 24.8 °F 16.1 °F 21.2 °F 86% 29.87 in 2.5 mi West 8.1 mph - 0.00 in Snow Light Snow
8:00 PM 24.8 °F 16.9 °F 21.2 °F 86% 29.87 in 1.2 mi West 6.9 mph - 0.00 in Snow Light Snow
8:06 PM 24.8 °F 16.1 °F 21.2 °F 86% 29.87 in 0.5 mi West 8.1 mph - 0.00 in Fog , Snow Snow
8:19 PM 24.8 °F 16.9 °F 21.2 °F 86% 29.87 in 1.0 mi West 6.9 mph - 0.00 in Snow Light Snow
8:43 PM 24.8 °F 19.1 °F 21.2 °F 86% 29.87 in 0.8 mi West 4.6 mph - 0.00 in Snow Light Snow
8:50 PM 24.8 °F 19.1 °F 21.2 °F 86% 29.87 in 0.5 mi West 4.6 mph - 0.00 in Fog , Snow Snow
8:53 PM 24.1 °F 19.7 °F 21.9 °F 91% 29.91 in 0.8 mi West 3.5 mph - 0.00 in Snow Light Snow
8:55 PM 24.8 °F 19.1 °F 21.2 °F 86% 29.88 in 1.0 mi West 4.6 mph - 0.00 in Snow Light Snow
9:07 PM 24.8 °F 19.1 °F 21.2 °F 86% 29.87 in 2.0 mi WNW 4.6 mph - 0.00 in Snow Light Snow
9:17 PM 24.8 °F 16.9 °F 21.2 °F 86% 29.87 in 4.0 mi WNW 6.9 mph - 0.00 in Snow Light Snow
9:23 PM 24.8 °F 16.1 °F 21.2 °F 86% 29.87 in 1.8 mi WNW 8.1 mph - 0.00 in Snow Light Snow
9:26 PM 24.8 °F 15.3 °F 21.2 °F 86% 29.87 in 0.8 mi West 9.2 mph - 0.00 in Snow Light Snow
9:36 PM 24.8 °F 15.3 °F 21.2 °F 86% 29.87 in 0.2 mi WNW 9.2 mph - 0.00 in Fog , Snow Snow
9:42 PM 23.0 °F 14.7 °F 21.2 °F 93% 29.88 in 1.0 mi West 6.9 mph - 0.00 in Snow Light Snow
9:53 PM 23.0 °F 17.0 °F 21.0 °F 92% 29.91 in 3.0 mi West 4.6 mph - 0.00 in Snow Light Snow
9:58 PM 23.0 °F 15.8 °F 19.4 °F 86% 29.88 in 5.0 mi WNW 5.8 mph - 0.00 in Snow Light Snow
10:19 PM 23.0 °F 13.9 °F 19.4 °F 86% 29.87 in 2.5 mi WNW 8.1 mph - 0.00 in Snow Light Snow
10:31 PM 23.0 °F 13.9 °F 19.4 °F 86% 29.87 in 4.0 mi WNW 8.1 mph - 0.00 in Snow Light Snow
10:50 PM 21.2 °F 12.6 °F 19.4 °F 93% 29.86 in 2.5 mi WNW 6.9 mph - 0.00 in Snow Light Snow
10:53 PM 21.9 °F 14.5 °F 19.0 °F 89% 29.89 in 2.5 mi WNW 5.8 mph - 0.00 in Snow Light Snow
11:00 PM 21.2 °F 11.7 °F 19.4 °F 93% 29.86 in 5.0 mi WNW 8.1 mph - 0.00 in Snow Light Snow
11:33 PM 21.2 °F 10.1 °F 17.6 °F 86% 29.86 in 1.8 mi NW 10.4 mph - 0.00 in Snow Light Snow
11:42 PM 21.2 °F 10.9 °F 17.6 °F 86% 29.87 in 1.2 mi NW 9.2 mph 19.6 mph 0.00 in Snow Light Snow
11:51 PM 21.2 °F 10.9 °F 15.8 °F 80% 29.87 in 2.0 mi WNW 9.2 mph - 0.00 in Snow Light Snow
11:53 PM 21.0 °F 8.6 °F 16.0 °F 81% 29.91 in 3.0 mi WNW 12.7 mph - 0.00 in Snow Light Snow